Riverside, CA

9:01 AM PST on February 09, 2016 (GMT -0800)
March Air Reserve Base

Weather History for KRIV - April, 2013

Change the Weather History Date:

Wednesday, April 10, 2013

  Actual Average (KRAL) Record (KRAL)
Temperature  
Mean Temperature 60 °F 62 °F  
Max Temperature 81 °F 74 °F 98 °F (1988)
Min Temperature 40 °F 49 °F 30 °F (1953)
Degree Days  
Heating Degree Days 4 4  
Month to date heating degree days 46  
Since 1 July heating degree days 1359  
Cooling Degree Days 0 1  
Month to date cooling degree days 9  
Year to date cooling degree days 30  
Growing Degree Days 10 (Base 50)    
Moisture  
Dew Point 29 °F    
Average Humidity 33    
Maximum Humidity 70    
Minimum Humidity 12    
Precipitation  
Precipitation 0.00 in 0.03 in 0.50 in (1965)
Month to date precipitation 0.23  
Year to date precipitation 8.22  
Snow  
Snow 0.00 in - - ()
Month to date snowfall  
Since 1 July snowfall  
Snow Depth -    
Sea Level Pressure  
Sea Level Pressure 30.02 in    
Wind  
Wind Speed 7 mph (NW)    
Max Wind Speed 21 mph    
Max Gust Speed 31 mph    
Visibility 10 miles    
Events      
T = Trace of Precipitation, MM = Missing Value Source: NWS Daily Summary

Daily Weather History Graph

Daily Weather History Graph

Search for Another Location

Airport or City:

Trip Planner

Search our weather history database for the weather conditions in past years. The results will help you decide how hot, cold, wet, or windy it might be!

Date:

Astronomy

Apr. 10, 2013 Rise Set
Actual Time 6:24 AM PDT 7:16 PM PDT
Civil Twilight 5:58 AM PDT 7:42 PM PDT
Nautical Twilight 5:28 AM PDT 8:12 PM PDT
Astronomical Twilight 4:57 AM PDT 8:43 PM PDT
Moon 6:24 AM PDT (4/10) 7:53 PM PDT (4/10)
Length of Visible Light 13h 43m
Length of Day
12h 52m
New Moon, 0% of the Moon is Illuminated
Apr 10
New Moon
Apr 18
First Quarter
Apr 25
Full
May 2
Last Quarter
May 9
New

Hourly Weather History & Observations

Time (PDT) Temp. Windchill Dew Point Humidity Pressure Visibility Wind Dir Wind Speed Gust Speed Precip Events Conditions
12:58 AM 41.2 °F - 31.1 °F 67% 30.02 in 10.0 mi Calm Calm - N/A   Clear
1:58 AM 41.9 °F 39.0 °F 31.3 °F 66% 30.01 in 10.0 mi WNW 4.6 mph - N/A   Clear
2:58 AM 40.6 °F - 31.5 °F 70% 30.01 in 10.0 mi Calm Calm - N/A   Clear
3:58 AM 45.3 °F - 33.8 °F 64% 30.01 in 10.0 mi Variable 2.3 mph - N/A   Clear
4:58 AM 57.9 °F - 25.7 °F 29% 30.00 in 10.0 mi Variable 4.6 mph - N/A   Clear
5:58 AM 43.9 °F - 32.5 °F 64% 30.03 in 10.0 mi Variable 1.2 mph - N/A   Clear
6:58 AM 44.4 °F - 32.0 °F 62% 30.05 in 10.0 mi Variable 1.2 mph - N/A   Clear
7:58 AM 54.5 °F - 35.1 °F 48% 30.08 in 10.0 mi WSW 6.9 mph - N/A   Clear
8:58 AM 68.9 °F - 25.9 °F 20% 30.07 in 10.0 mi NNW 12.7 mph - N/A   Clear
9:58 AM 70.2 °F - 28.2 °F 21% 30.08 in 10.0 mi ENE 8.1 mph - N/A   Clear
10:58 AM 72.9 °F - 27.7 °F 19% 30.07 in 10.0 mi NNW 8.1 mph - N/A   Clear
11:58 AM 77.4 °F - 24.1 °F 14% 30.04 in 10.0 mi NW 19.6 mph 29.9 mph N/A   Clear
12:58 PM 79.0 °F - 22.8 °F 12% 30.04 in 10.0 mi NW 18.4 mph 28.8 mph N/A   Clear
1:58 PM 80.2 °F - 25.2 °F 13% 30.01 in 10.0 mi NW 19.6 mph 31.1 mph N/A   Clear
2:32 PM 80.6 °F - 24.8 °F 13% 30.02 in 10.0 mi North 19.6 mph 25.3 mph N/A   Clear
2:41 PM 80.6 °F - 24.8 °F 13% 30.02 in 10.0 mi WNW 15.0 mph 27.6 mph N/A   Clear
2:58 PM 81.1 °F - 24.4 °F 12% 29.99 in 10.0 mi NW 17.3 mph 25.3 mph N/A   Clear
3:00 PM 80.6 °F - 24.8 °F 13% 30.01 in 10.0 mi WNW 12.7 mph 25.3 mph N/A   Clear
3:38 PM 80.6 °F - 28.4 °F 15% 29.99 in 10.0 mi West 15.0 mph 23.0 mph N/A   Clear
3:58 PM 80.4 °F - 29.8 °F 16% 29.96 in 10.0 mi WNW 13.8 mph 24.2 mph N/A   Clear
4:58 PM 77.5 °F - 32.4 °F 19% 29.94 in 10.0 mi WNW 20.7 mph 24.2 mph N/A   Clear
5:58 PM 74.7 °F - 32.5 °F 21% 29.96 in 10.0 mi WNW 17.3 mph 25.3 mph N/A   Clear
6:58 PM 70.0 °F - 32.7 °F 25% 29.99 in 10.0 mi WNW 11.5 mph 23.0 mph N/A   Clear
7:58 PM 64.2 °F - 32.7 °F 31% 30.01 in 10.0 mi NNW 5.8 mph - N/A   Clear
8:58 PM 56.1 °F - 32.5 °F 41% 30.03 in 10.0 mi NNW 5.8 mph - N/A   Clear
9:58 PM 59.7 °F - 32.5 °F 36% 30.04 in 10.0 mi Calm Calm - N/A   Clear
10:58 PM 52.3 °F - 30.4 °F 43% 30.03 in 10.0 mi ESE 3.5 mph - N/A   Clear
11:58 PM 45.3 °F - 27.1 °F 49% 30.03 in 10.0 mi Calm Calm - N/A   Clear